Regional Weather Roundup
Issued by NWS

Home | Current Version | Previous Version | Text Only | Print | Product List | Glossary Off
Versions: 1 2 3 4 5 6 7 8 9 10 11 12 13 14 15 16 17 18 19 20 21 22 23 24 25 26 27 28 29 30 31 32 33 34 35 36 37 38 39 40 41 42 43 44 45 46 47 48 49 50

000
ASUS43 KFSD 200810
RWRSD

WEATHER ROUNDUP FOR SOUTH DAKOTA
NATIONAL WEATHER SERVICE SIOUX FALLS SD
300 AM CDT SUN APR 20 2014

NOTE: "FAIR" INDICATES FEW OR NO CLOUDS BELOW 12,000 FEET WITH NO
SIGNIFICANT WEATHER AND/OR OBSTRUCTIONS TO VISIBILITY.


SDZ001>005-009-010-012>017-200900-
NORTHWEST AND NORTH CENTRAL SOUTH DAKOTA

CITY           SKY/WX    TMP DP  RH WIND       PRES   REMARKS
BUFFALO          N/A     43  28  55 S9        29.88F
FAITH            N/A     38  28  67 S13       29.96F
MOBRIDGE       CLEAR     38  29  70 SE3       29.96F
$$

SDZ012>016-024>037-041>051-057-063-072>074-200900-
SOUTHWEST AND SOUTH CENTRAL SOUTH DAKOTA

CITY           SKY/WX    TMP DP  RH WIND       PRES   REMARKS
RAPID CTY ARPT PTCLDY    41  28  60 S5        29.96F
PIERRE         PTCLDY    36  26  67 CALM      29.98F
CUSTER         CLEAR     44  27  51 CALM      30.01F
ELLSWORTH AFB  PTCLDY    47  29  50 S9        29.95F
PHILIP         PTCLDY    40  27  59 CALM      29.98F
PINE RIDGE     CLEAR     48  28  46 NE3       29.98F
SPEARFISH      FAIR      45  32  61 NW6       29.94F
WINNER         FAIR      46  20  35 SE9       30.00S
$$

SDZ004>011-016>023-039-040-200900-
NORTHEAST SOUTH DAKOTA

CITY           SKY/WX    TMP DP  RH WIND       PRES   REMARKS
ABERDEEN       CLEAR     40  34  79 NE8       30.01S
WATERTOWN      PTCLDY    39  31  72 CALM      30.01R
SISSETON         N/A     41  36  82 NW7       30.03S
$$

SDZ017-020-022-023-036>040-048>070-200900-
SOUTHEAST SOUTH DAKOTA

CITY           SKY/WX    TMP DP  RH WIND       PRES   REMARKS
SIOUX FALLS    CLOUDY    53  41  63 NE3       29.99F
HURON          PTCLDY    41  31  67 CALM      29.99S
CHAMBERLAIN      N/A     50  23  34 CALM      30.00F
MITCHELL       CLEAR     41  28  60 CALM      30.00S
YANKTON        PTCLDY    54  36  50 NE6       29.99F
$$

ABBREVIATIONS USED IN REMARKS
   TC - TEMPERATURE IN CELSIUS
  WCI - WIND CHILL INDEX
   HX - HEAT INDEX
  VSB - VISIBILITY




USA.gov is the U.S. government's official web portal to all federal, state and local government web resources and services.